Date String (YYYY-MM-DD hh:mm:ss) UTC,Instrument flags,Ambient pressure (hPa),Sample flow (lpm),Bypass flow (lpm),Sample temperature (°C),Ambient temperature (°C),ASC tube jacket temperature (°C),LED temperature (°C),Box temperature (°C),Sample RH (%),Span deviation,Mass concentration (μg/m³),Mass concentration (μg/m³),Mass concentration (μg/m³)
DateTimeUTC,F1_M11,P_M11,Q1_M11,Q2_M11,T1_M11,T2_M11,T3_M11,T4_M11,T5_M11,U1_M11,ZSPAN_M11,X2_M11,X0_M11,X1_M11
2021-10-30 20:00:00,,0825.3,5.00,0.00,30.5,29.7,00.0,39.3,32.3,10.0,0000.0,0004.10,0012.26,0003.16
2021-10-30 20:01:00,,0825.3,5.01,0.00,30.5,29.5,00.0,39.4,32.3,10.1,0000.0,0004.05,0011.92,0003.13
2021-10-30 20:02:00,,0825.3,5.00,0.00,30.5,27.7,00.0,39.4,32.0,10.3,0000.0,0003.96,0010.86,0003.07
2021-10-30 20:03:00,,0825.3,4.99,0.00,30.3,26.9,00.0,39.4,31.8,10.4,0000.0,0003.88,0010.69,0002.98
2021-10-30 20:04:00,,0825.3,5.00,0.00,30.3,27.1,00.0,39.3,31.8,10.4,0000.0,0003.81,0010.29,0002.92
2021-10-30 20:05:00,,0825.3,4.99,0.00,30.2,27.5,00.0,39.3,31.8,10.5,0000.0,0003.71,0009.63,0002.86
2021-10-30 20:06:00,,0825.4,5.01,0.00,30.2,27.9,00.0,39.2,31.8,10.7,0000.0,0003.64,0009.46,0002.80
2021-10-30 20:07:00,,0825.3,4.99,0.00,30.2,28.2,00.0,39.2,31.9,10.7,0000.0,0003.55,0009.09,0002.71
2021-10-30 20:08:00,,0825.3,5.00,0.00,30.2,28.4,00.0,39.2,31.9,10.7,0000.0,0003.47,0008.80,0002.60
2021-10-30 20:09:00,,0825.3,5.00,0.00,30.2,28.7,00.0,39.2,32.0,10.7,0000.0,0003.37,0009.92,0002.48
2021-10-30 20:10:00,,0825.3,4.99,0.00,30.2,28.8,00.0,39.2,32.0,10.7,0000.0,0003.24,0010.33,0002.34
2021-10-30 20:11:00,,0825.3,5.00,0.00,30.2,29.0,00.0,39.2,32.0,10.7,0000.0,0003.12,0009.75,0002.18
2021-10-30 20:12:00,,0825.4,5.00,0.00,30.3,29.1,00.0,39.2,32.0,10.6,0000.0,0003.00,0009.11,0002.06
2021-10-30 20:13:00,,0825.3,5.00,0.00,30.3,29.2,00.0,39.2,32.1,10.6,0000.0,0002.92,0009.60,0001.97
2021-10-30 20:14:00,,0825.3,5.00,0.00,30.3,29.3,00.0,39.2,32.1,10.5,0000.0,0002.94,0009.86,0001.91
2021-10-30 20:15:00,,0825.3,4.99,0.00,30.4,29.4,00.0,39.3,32.1,10.6,0000.0,0002.88,0010.42,0001.84
2021-10-30 20:16:00,,0825.4,5.00,0.00,30.4,29.4,00.0,39.3,32.2,10.6,0000.0,0002.79,0010.69,0001.77
2021-10-30 20:17:00,,0825.4,5.01,0.00,30.4,29.5,00.0,39.3,32.2,10.6,0000.0,0002.72,0011.80,0001.73
2021-10-30 20:18:00,,0825.3,5.00,0.00,30.4,29.6,00.0,39.3,32.2,10.4,0000.0,0002.71,0012.54,0001.72
2021-10-30 20:19:00,,0825.4,5.00,0.00,30.5,29.6,00.0,39.3,32.3,10.4,0000.0,0002.78,0013.34,0001.72
2021-10-30 20:20:00,,0825.4,4.99,0.00,30.5,29.0,00.0,39.4,32.2,10.4,0000.0,0002.77,0012.32,0001.74
2021-10-30 20:21:00,,0825.4,5.02,0.00,30.4,26.7,00.0,39.3,31.7,10.5,0000.0,0002.80,0012.01,0001.76
2021-10-30 20:22:00,,0825.4,4.98,0.00,30.2,25.8,00.0,39.3,31.5,10.6,0000.0,0002.89,0012.13,0001.78
2021-10-30 20:23:00,,0825.3,5.01,0.00,30.1,26.1,00.0,39.2,31.5,10.4,0000.0,0002.98,0013.05,0001.82
2021-10-30 20:24:00,,0825.4,5.00,0.00,30.0,26.7,00.0,39.2,31.5,10.6,0000.0,0002.93,0012.31,0001.84
2021-10-30 20:25:00,,0825.4,5.00,0.00,30.0,27.1,00.0,39.1,31.5,10.7,0000.0,0002.81,0011.95,0001.84
2021-10-30 20:26:00,,0825.4,4.99,0.00,30.0,27.6,00.0,39.1,31.6,10.8,0000.0,0002.77,0011.41,0001.83
2021-10-30 20:27:00,,0825.4,5.01,0.00,30.0,27.9,00.0,39.1,31.6,10.9,0000.0,0002.77,0011.17,0001.83
2021-10-30 20:28:00,,0825.4,5.01,0.00,30.0,28.2,00.0,39.1,31.7,10.9,0000.0,0002.76,0010.03,0001.83
2021-10-30 20:29:00,,0825.4,5.00,0.00,30.0,28.4,00.0,39.0,31.7,10.8,0000.0,0002.85,0009.38,0001.84
2021-10-30 20:30:00,,0825.4,5.00,0.00,30.0,28.6,00.0,39.0,31.8,11.2,0000.0,0002.94,0010.13,0001.84
2021-10-30 20:31:00,,0825.4,4.99,0.00,30.0,28.7,00.0,39.0,31.8,12.4,0000.0,0002.98,0010.26,0001.80
2021-10-30 20:32:00,,0825.4,4.99,0.00,30.1,28.8,00.0,39.0,31.9,12.7,0000.0,0003.02,0010.25,0001.75
2021-10-30 20:33:00,,0825.4,5.01,0.00,30.1,28.9,00.0,39.1,31.9,12.9,0000.0,0003.02,0010.82,0001.70
2021-10-30 20:34:00,,0825.4,5.01,0.00,30.1,29.0,00.0,39.1,31.9,12.9,0000.0,0003.04,0010.22,0001.62
2021-10-30 20:35:00,,0825.4,4.99,0.00,30.1,29.1,00.0,39.1,32.0,12.9,0000.0,0003.14,0011.50,0001.58
2021-10-30 20:36:00,,0825.4,5.01,0.00,30.2,29.2,00.0,39.1,32.0,12.7,0000.0,0003.22,0012.09,0001.54
2021-10-30 20:37:00,,0825.4,4.99,0.00,30.2,29.2,00.0,39.1,32.0,12.7,0000.0,0003.26,0012.64,0001.52
2021-10-30 20:38:00,,0825.4,5.01,0.00,30.2,29.2,00.0,39.1,32.0,12.7,0000.0,0003.30,0013.87,0001.51
2021-10-30 20:39:00,,0825.4,5.00,0.00,30.3,29.3,00.0,39.1,32.1,12.8,0000.0,0003.33,0014.74,0001.48
2021-10-30 20:40:00,,0825.5,5.00,0.00,30.3,29.4,00.0,39.2,32.1,12.8,0000.0,0003.36,0017.04,0001.45
2021-10-30 20:41:00,,0825.4,4.99,0.00,30.3,29.4,00.0,39.2,32.1,12.8,0000.0,0003.36,0016.78,0001.41
2021-10-30 20:42:00,,0825.5,5.01,0.00,30.4,29.5,00.0,39.2,32.2,12.9,0000.0,0003.36,0016.75,0001.41
2021-10-30 20:43:00,,0825.5,5.00,0.00,30.4,29.5,00.0,39.2,32.2,12.8,0000.0,0003.34,0017.45,0001.42
2021-10-30 20:44:00,,0825.4,5.00,0.00,30.4,29.5,00.0,39.2,32.2,12.7,0000.0,0003.31,0017.58,0001.44
2021-10-30 20:45:00,,0825.4,5.00,0.00,30.4,29.5,00.0,39.3,32.3,12.7,0000.0,0003.27,0017.59,0001.46
2021-10-30 20:46:00,,0825.5,5.00,0.00,30.5,29.6,00.0,39.3,32.3,12.7,0000.0,0003.22,0016.61,0001.48
2021-10-30 20:47:00,,0825.5,5.00,0.00,30.5,29.6,00.0,39.3,32.3,12.7,0000.0,0003.22,0016.60,0001.50
2021-10-30 20:48:00,,0825.5,5.00,0.00,30.5,29.6,00.0,39.3,32.3,12.6,0000.0,0003.25,0016.88,0001.51
2021-10-30 20:49:00,,0825.5,5.01,0.00,30.5,29.6,00.0,39.4,32.3,12.7,0000.0,0003.23,0016.29,0001.53
2021-10-30 20:50:00,,0825.5,5.00,0.00,30.5,29.7,00.0,39.4,32.4,12.6,0000.0,0003.27,0015.69,0001.55
2021-10-30 20:51:00,,0825.5,5.00,0.00,30.5,29.7,00.0,39.4,32.3,12.5,0000.0,0003.23,0013.79,0001.57
2021-10-30 20:52:00,,0825.5,5.01,0.00,30.6,29.7,00.0,39.4,32.3,12.5,0000.0,0003.17,0013.18,0001.60
2021-10-30 20:53:00,,0825.5,5.00,0.00,30.6,29.2,00.0,39.4,32.2,12.5,0000.0,0003.15,0013.40,0001.64
2021-10-30 20:54:00,,0825.5,5.00,0.00,30.4,26.9,00.0,39.4,31.8,12.6,0000.0,0003.14,0013.32,0001.66
2021-10-30 20:55:00,,0825.5,5.00,0.00,30.3,25.7,00.0,39.4,31.5,12.7,0000.0,0003.16,0013.40,0001.68
2021-10-30 20:56:00,,0825.5,5.01,0.00,30.1,26.0,00.0,39.3,31.5,12.8,0000.0,0003.19,0013.70,0001.70
2021-10-30 20:57:00,,0825.5,5.00,0.00,30.0,26.5,00.0,39.2,31.5,12.8,0000.0,0003.23,0014.06,0001.70
2021-10-30 20:58:00,,0825.5,5.00,0.00,30.0,27.0,00.0,39.2,31.5,12.9,0000.0,0003.23,0013.97,0001.71
2021-10-30 20:59:00,,0825.5,5.00,0.00,30.0,27.4,00.0,39.1,31.6,12.9,0000.0,0003.19,0013.08,0001.71
